ANA554 RJCH-RJTT

Flight info

Callsign ANA554
Flight time 1h 16m
Altitude 40000
Route UWE Y32 RUBIS Y10 GODIN
Aircraft B772/H-SDE2FGILORVWX/LB1

Departure

Time 2026-04-26 15:23
Airport Hakodate Airport (RJCH)

Arrival

Time 2026-04-26 16:39
Airport Tokyo Haneda International Airport (RJTT)
Time Latitude Longitude Altitude Speed Heading
2026-04-26 14:43 41.77490 140.81529 114 ft 0 kts 17°
2026-04-26 15:14 41.77467 140.81519 111 ft 4 kts 18°
2026-04-26 15:15 41.77442 140.81508 114 ft 3 kts 18°
2026-04-26 15:15 41.77421 140.81500 111 ft 4 kts
2026-04-26 15:15 41.77394 140.81503 115 ft 4 kts 344°
2026-04-26 15:15 41.77374 140.81512 118 ft 1 kts 341°
2026-04-26 15:16 41.77370 140.81513 115 ft 0 kts 341°
2026-04-26 15:18 41.77371 140.81512 113 ft 2 kts 336°
2026-04-26 15:18 41.77375 140.81466 114 ft 7 kts 262°
2026-04-26 15:18 41.77394 140.81359 110 ft 13 kts 289°
2026-04-26 15:18 41.77423 140.81243 111 ft 13 kts 287°
2026-04-26 15:19 41.77451 140.81126 112 ft 13 kts 288°
2026-04-26 15:19 41.77481 140.81002 108 ft 15 kts 288°
2026-04-26 15:19 41.77514 140.80871 109 ft 15 kts 288°
2026-04-26 15:19 41.77544 140.80745 108 ft 14 kts 285°
2026-04-26 15:20 41.77553 140.80637 107 ft 9 kts 273°
2026-04-26 15:20 41.77536 140.80568 105 ft 6 kts 232°
2026-04-26 15:20 41.77508 140.80544 105 ft 0 kts 199°
2026-04-26 15:21 41.77488 140.80535 106 ft 11 kts 199°
2026-04-26 15:22 41.77423 140.80521 106 ft 5 kts 139°
2026-04-26 15:22 41.77416 140.80554 109 ft 11 kts 105°
2026-04-26 15:22 41.77338 140.80899 110 ft 78 kts 108°
2026-04-26 15:22 41.77082 140.81958 137 ft 157 kts 106°
2026-04-26 15:23 41.76733 140.83376 1072 ft 156 kts 106°
2026-04-26 15:23 41.76306 140.84739 1723 ft 170 kts 124°
2026-04-26 15:23 41.75259 140.85702 1964 ft 203 kts 169°
2026-04-26 15:23 41.73827 140.85357 2259 ft 225 kts 213°
2026-04-26 15:24 41.72612 140.83943 2590 ft 244 kts 225°
2026-04-26 15:24 41.71359 140.82323 3260 ft 256 kts 225°
2026-04-26 15:24 41.70053 140.80675 4148 ft 258 kts 224°
2026-04-26 15:24 41.68736 140.79052 5119 ft 257 kts 223°
2026-04-26 15:25 41.67406 140.77443 6040 ft 258 kts 222°
2026-04-26 15:25 41.66517 140.76382 6621 ft 260 kts 222°
2026-04-26 15:25 41.64682 140.74222 7731 ft 266 kts 221°
2026-04-26 15:25 41.63276 140.72587 8531 ft 271 kts 221°
2026-04-26 15:26 41.61836 140.70930 9353 ft 275 kts 221°
2026-04-26 15:26 41.60376 140.69256 10211 ft 278 kts 221°
2026-04-26 15:26 41.58876 140.67540 10663 ft 301 kts 220°
2026-04-26 15:26 41.57189 140.65616 11125 ft 324 kts 220°
2026-04-26 15:27 41.55474 140.63664 12006 ft 332 kts 220°
2026-04-26 15:27 41.53701 140.61653 13114 ft 336 kts 220°
2026-04-26 15:27 41.51910 140.59625 14247 ft 339 kts 220°
2026-04-26 15:27 41.50106 140.57586 15352 ft 341 kts 221°
2026-04-26 15:28 41.48289 140.55535 16420 ft 343 kts 221°
2026-04-26 15:28 41.46460 140.53470 17456 ft 346 kts 221°
2026-04-26 15:28 41.44617 140.51390 18432 ft 349 kts 221°
2026-04-26 15:28 41.42753 140.49291 19372 ft 352 kts 222°
2026-04-26 15:29 41.40880 140.47179 20312 ft 354 kts 222°
2026-04-26 15:29 41.38991 140.45053 21189 ft 357 kts 222°
2026-04-26 15:29 41.35158 140.40744 22855 ft 364 kts 222°
2026-04-26 15:30 41.31253 140.36363 24518 ft 370 kts 223°
2026-04-26 15:30 41.29282 140.34155 25341 ft 372 kts 223°
2026-04-26 15:30 41.27302 140.31939 26213 ft 372 kts 223°
2026-04-26 15:31 41.25328 140.29730 27059 ft 371 kts 224°
2026-04-26 15:31 41.21397 140.25337 28573 ft 371 kts 225°
2026-04-26 15:31 41.19419 140.23131 29225 ft 372 kts 225°
2026-04-26 15:32 41.16766 140.20169 30018 ft 374 kts 225°
2026-04-26 15:32 41.12943 140.17330 30725 ft 395 kts 207°
2026-04-26 15:32 41.10229 140.16490 31229 ft 410 kts 197°
2026-04-26 15:33 41.07338 140.16402 31608 ft 419 kts 191°
2026-04-26 15:33 41.04399 140.16468 32015 ft 425 kts 190°
2026-04-26 15:33 41.01441 140.16563 32544 ft 425 kts 190°
2026-04-26 15:33 40.98483 140.16657 33035 ft 425 kts 191°
2026-04-26 15:34 40.95530 140.16739 33464 ft 425 kts 191°
2026-04-26 15:34 40.92570 140.16805 33902 ft 424 kts 191°
2026-04-26 15:34 40.89637 140.16864 34493 ft 419 kts 192°
2026-04-26 15:34 40.86734 140.16920 35031 ft 416 kts 192°
2026-04-26 15:35 40.83840 140.16966 35442 ft 416 kts 193°
2026-04-26 15:35 40.80951 140.17005 35862 ft 415 kts 193°
2026-04-26 15:35 40.78069 140.17047 36326 ft 412 kts 193°
2026-04-26 15:35 40.75204 140.17095 36721 ft 411 kts 193°
2026-04-26 15:36 40.72350 140.17131 37160 ft 408 kts 193°
2026-04-26 15:36 40.69539 140.17172 37765 ft 401 kts 194°
2026-04-26 15:36 40.66769 140.17218 38256 ft 396 kts 194°
2026-04-26 15:36 40.64009 140.17253 38478 ft 398 kts 194°
2026-04-26 15:37 40.61231 140.17287 38717 ft 399 kts 194°
2026-04-26 15:37 40.58455 140.17323 39014 ft 399 kts 194°
2026-04-26 15:37 40.55684 140.17362 39361 ft 398 kts 194°
2026-04-26 15:37 40.52910 140.17401 39599 ft 399 kts 194°
2026-04-26 15:38 40.47305 140.17469 39854 ft 405 kts 193°
2026-04-26 15:38 40.42603 140.17538 39931 ft 406 kts 193°
2026-04-26 15:39 40.36986 140.17632 39990 ft 400 kts 193°
2026-04-26 15:39 40.32367 140.17702 40005 ft 399 kts 192°
2026-04-26 15:40 40.25871 140.17799 40009 ft 399 kts 193°
2026-04-26 15:40 40.20302 140.17880 39994 ft 400 kts 193°
2026-04-26 15:41 40.14740 140.17952 40016 ft 401 kts 192°
2026-04-26 15:41 40.09180 140.18046 39989 ft 398 kts 193°
2026-04-26 15:42 40.03651 140.18073 40002 ft 394 kts 193°
2026-04-26 15:42 39.98167 140.18194 40015 ft 397 kts 193°
2026-04-26 15:43 39.92611 140.18299 40014 ft 400 kts 192°
2026-04-26 15:44 39.84283 140.18403 40007 ft 397 kts 194°
2026-04-26 15:44 39.75894 140.18480 40022 ft 407 kts 192°
2026-04-26 15:45 39.67436 140.18611 40019 ft 402 kts 193°
2026-04-26 15:46 39.58965 140.18890 40010 ft 414 kts 189°
2026-04-26 15:46 39.54139 140.19614 40000 ft 417 kts 186°
2026-04-26 15:47 39.44581 140.21147 40030 ft 415 kts 187°
2026-04-26 15:48 39.38844 140.21939 40033 ft 414 kts 188°
2026-04-26 15:48 39.33118 140.22753 40027 ft 414 kts 187°
2026-04-26 15:49 39.27403 140.23555 40019 ft 412 kts 187°
2026-04-26 15:49 39.21742 140.24381 40013 ft 408 kts 187°
2026-04-26 15:50 39.16118 140.25140 40014 ft 407 kts 187°
2026-04-26 15:50 39.10457 140.25937 40002 ft 409 kts 188°
2026-04-26 15:51 39.04800 140.26657 39996 ft 409 kts 187°
2026-04-26 15:51 38.99191 140.27436 40013 ft 406 kts 188°
2026-04-26 15:52 38.93566 140.28220 40021 ft 407 kts 187°
2026-04-26 15:52 38.87938 140.29048 40020 ft 412 kts 187°
2026-04-26 15:53 38.82249 140.29827 40011 ft 411 kts 186°
2026-04-26 15:53 38.76569 140.30617 40033 ft 409 kts 188°
2026-04-26 15:54 38.70868 140.31349 40027 ft 415 kts 186°
2026-04-26 15:54 38.65137 140.32178 40017 ft 412 kts 187°
2026-04-26 15:55 38.59459 140.32980 40018 ft 410 kts 187°
2026-04-26 15:55 38.53778 140.33780 40033 ft 410 kts 186°
2026-04-26 15:56 38.48122 140.34550 40018 ft 409 kts 187°
2026-04-26 15:56 38.42473 140.35285 40026 ft 403 kts 187°
2026-04-26 15:57 38.36852 140.36667 40019 ft 422 kts 178°
2026-04-26 15:57 38.31199 140.39069 40010 ft 429 kts 175°
2026-04-26 15:58 38.25571 140.41580 40019 ft 428 kts 175°
2026-04-26 15:58 38.19934 140.43995 40023 ft 427 kts 175°
2026-04-26 15:59 38.14331 140.46472 40029 ft 425 kts 175°
2026-04-26 15:59 38.08776 140.48860 40034 ft 424 kts 175°
2026-04-26 16:00 38.03163 140.51278 40038 ft 428 kts 175°
2026-04-26 16:00 37.97504 140.53725 40034 ft 431 kts 175°
2026-04-26 16:01 37.91815 140.56179 40030 ft 432 kts 175°
2026-04-26 16:01 37.86130 140.58628 40028 ft 432 kts 175°
2026-04-26 16:02 37.80438 140.61080 40026 ft 432 kts 175°
2026-04-26 16:02 37.77587 140.62108 40026 ft 417 kts 183°
2026-04-26 16:02 37.74757 140.62490 40031 ft 403 kts 190°
2026-04-26 16:03 37.69258 140.61996 40035 ft 390 kts 202°
2026-04-26 16:03 37.63973 140.60453 40040 ft 391 kts 203°
2026-04-26 16:04 37.58670 140.58886 40043 ft 392 kts 203°
2026-04-26 16:04 37.53342 140.57347 39455 ft 392 kts 202°
2026-04-26 16:04 37.50707 140.56594 38990 ft 385 kts 203°
2026-04-26 16:05 37.48151 140.55868 38521 ft 379 kts 203°
2026-04-26 16:05 37.45589 140.55137 38040 ft 374 kts 203°
2026-04-26 16:05 37.43078 140.54418 37575 ft 368 kts 203°
2026-04-26 16:05 37.40592 140.53707 37117 ft 364 kts 202°
2026-04-26 16:06 37.38130 140.53001 36652 ft 361 kts 202°
2026-04-26 16:06 37.35694 140.52306 36198 ft 357 kts 202°
2026-04-26 16:06 37.33275 140.51616 35717 ft 355 kts 202°
2026-04-26 16:06 37.30875 140.50931 35227 ft 354 kts 202°
2026-04-26 16:07 37.28474 140.50247 34732 ft 352 kts 201°
2026-04-26 16:07 37.26090 140.49569 34253 ft 350 kts 201°
2026-04-26 16:07 37.23718 140.48891 33797 ft 348 kts 201°
2026-04-26 16:07 37.21372 140.48217 33329 ft 345 kts 201°
2026-04-26 16:08 37.19033 140.47544 32879 ft 343 kts 201°
2026-04-26 16:08 37.17495 140.47103 32583 ft 342 kts 201°
2026-04-26 16:08 37.14393 140.46224 31976 ft 341 kts 201°
2026-04-26 16:08 37.12083 140.45571 31526 ft 339 kts 201°
2026-04-26 16:09 37.09753 140.44908 31109 ft 356 kts 201°
2026-04-26 16:09 37.07315 140.44212 30623 ft 356 kts 200°
2026-04-26 16:09 37.04909 140.43537 30162 ft 353 kts 200°
2026-04-26 16:09 37.02522 140.42868 29698 ft 351 kts 200°
2026-04-26 16:10 37.00147 140.42197 29193 ft 348 kts 200°
2026-04-26 16:10 36.97788 140.41535 28697 ft 346 kts 200°
2026-04-26 16:10 36.95437 140.40876 28208 ft 345 kts 200°
2026-04-26 16:10 36.93102 140.40221 27712 ft 344 kts 200°
2026-04-26 16:11 36.90772 140.39565 27221 ft 342 kts 199°
2026-04-26 16:11 36.88456 140.38916 26739 ft 340 kts 199°
2026-04-26 16:11 36.86145 140.38273 26277 ft 339 kts 199°
2026-04-26 16:11 36.83844 140.37631 25806 ft 339 kts 199°
2026-04-26 16:12 36.81545 140.36991 25332 ft 338 kts 199°
2026-04-26 16:12 36.79282 140.36360 24871 ft 337 kts 198°
2026-04-26 16:12 36.74713 140.35092 23968 ft 336 kts 198°
2026-04-26 16:13 36.72413 140.34559 23525 ft 337 kts 195°
2026-04-26 16:13 36.70098 140.34098 23077 ft 337 kts 194°
2026-04-26 16:13 36.67781 140.33643 22625 ft 336 kts 194°
2026-04-26 16:13 36.65472 140.33181 22174 ft 336 kts 194°
2026-04-26 16:14 36.63167 140.32714 21724 ft 335 kts 194°
2026-04-26 16:14 36.60866 140.32250 21269 ft 335 kts 194°
2026-04-26 16:14 36.56272 140.31326 20352 ft 334 kts 193°
2026-04-26 16:15 36.53978 140.30865 19891 ft 334 kts 193°
2026-04-26 16:15 36.51693 140.30406 19430 ft 333 kts 192°
2026-04-26 16:15 36.49399 140.29945 18949 ft 333 kts 192°
2026-04-26 16:16 36.44834 140.29029 17997 ft 332 kts 191°
2026-04-26 16:16 36.42547 140.28570 17532 ft 332 kts 191°
2026-04-26 16:16 36.40271 140.28115 17053 ft 331 kts 191°
2026-04-26 16:16 36.37993 140.27662 16567 ft 331 kts 191°
2026-04-26 16:17 36.35722 140.27211 16083 ft 330 kts 191°
2026-04-26 16:17 36.33452 140.26762 15601 ft 330 kts 191°
2026-04-26 16:17 36.31193 140.26312 15111 ft 329 kts 191°
2026-04-26 16:17 36.28988 140.25876 14607 ft 308 kts 190°
2026-04-26 16:18 36.26967 140.25478 14170 ft 284 kts 191°
2026-04-26 16:18 36.23064 140.24704 13373 ft 284 kts 190°
2026-04-26 16:19 36.19199 140.23938 12829 ft 279 kts 190°
2026-04-26 16:19 36.17282 140.23556 12626 ft 279 kts 190°
2026-04-26 16:19 36.14088 140.22920 12284 ft 281 kts 190°
2026-04-26 16:20 36.11496 140.22408 12003 ft 283 kts 190°
2026-04-26 16:20 36.07609 140.21637 11590 ft 283 kts 190°
2026-04-26 16:20 36.05666 140.21252 11385 ft 283 kts 190°
2026-04-26 16:21 36.03747 140.20873 11180 ft 283 kts 189°
2026-04-26 16:21 36.01803 140.20505 10995 ft 283 kts 187°
2026-04-26 16:21 35.99817 140.20373 10846 ft 281 kts 181°
2026-04-26 16:21 35.97893 140.20368 10695 ft 280 kts 181°
2026-04-26 16:22 35.95948 140.20373 10546 ft 279 kts 181°
2026-04-26 16:22 35.94135 140.20369 10406 ft 278 kts 181°
2026-04-26 16:22 35.92190 140.20357 10261 ft 278 kts 181°
2026-04-26 16:22 35.90256 140.20336 10111 ft 275 kts 181°
2026-04-26 16:23 35.88366 140.20312 9960 ft 269 kts 181°
2026-04-26 16:23 35.86498 140.20284 9826 ft 267 kts 181°
2026-04-26 16:23 35.84642 140.20256 9687 ft 266 kts 181°
2026-04-26 16:23 35.82791 140.20226 9548 ft 267 kts 181°
2026-04-26 16:24 35.80932 140.20196 9410 ft 267 kts 181°
2026-04-26 16:24 35.79075 140.20164 9270 ft 267 kts 181°
2026-04-26 16:24 35.77215 140.20161 9129 ft 268 kts 179°
2026-04-26 16:24 35.75354 140.20245 8987 ft 268 kts 178°
2026-04-26 16:25 35.73507 140.20345 8853 ft 257 kts 178°
2026-04-26 16:25 35.71785 140.20439 8455 ft 240 kts 178°
2026-04-26 16:25 35.70122 140.20522 8202 ft 237 kts 178°
2026-04-26 16:25 35.68501 140.20601 8114 ft 228 kts 178°
2026-04-26 16:26 35.67461 140.20650 8075 ft 224 kts 178°
2026-04-26 16:26 35.65912 140.20722 8034 ft 223 kts 178°
2026-04-26 16:26 35.64349 140.20794 8041 ft 226 kts 178°
2026-04-26 16:26 35.62765 140.20869 8040 ft 229 kts 178°
2026-04-26 16:27 35.61174 140.20901 7992 ft 227 kts 180°
2026-04-26 16:27 35.59600 140.20910 7726 ft 226 kts 180°
2026-04-26 16:27 35.58031 140.20918 7464 ft 225 kts 179°
2026-04-26 16:27 35.56468 140.20926 7209 ft 224 kts 179°
2026-04-26 16:28 35.54915 140.20939 6956 ft 223 kts 179°
2026-04-26 16:28 35.53366 140.20953 6690 ft 223 kts 179°
2026-04-26 16:28 35.51824 140.20963 6446 ft 221 kts 179°
2026-04-26 16:28 35.50296 140.20961 6193 ft 217 kts 184°
2026-04-26 16:29 35.48889 140.20363 5972 ft 219 kts 212°
2026-04-26 16:29 35.47692 140.19183 5815 ft 224 kts 219°
2026-04-26 16:29 35.46529 140.17890 5621 ft 226 kts 220°
2026-04-26 16:29 35.45383 140.16599 5410 ft 223 kts 220°
2026-04-26 16:30 35.44245 140.15316 5209 ft 221 kts 220°
2026-04-26 16:30 35.43116 140.14047 5007 ft 220 kts 219°
2026-04-26 16:30 35.42004 140.12805 4809 ft 218 kts 219°
2026-04-26 16:30 35.40879 140.11552 4603 ft 220 kts 219°
2026-04-26 16:31 35.39743 140.10294 4411 ft 220 kts 219°
2026-04-26 16:31 35.38608 140.09038 4207 ft 218 kts 218°
2026-04-26 16:31 35.37499 140.07814 4093 ft 210 kts 218°
2026-04-26 16:31 35.36442 140.06643 4022 ft 199 kts 218°
2026-04-26 16:32 35.35443 140.05541 4044 ft 192 kts 218°
2026-04-26 16:32 35.34455 140.04452 3999 ft 190 kts 218°
2026-04-26 16:32 35.33475 140.03374 4017 ft 189 kts 218°
2026-04-26 16:32 35.32496 140.02299 3997 ft 189 kts 218°
2026-04-26 16:33 35.31540 140.01205 3994 ft 187 kts 226°
2026-04-26 16:33 35.31003 139.99744 4025 ft 194 kts 255°
2026-04-26 16:33 35.31017 139.98053 3998 ft 205 kts 283°
2026-04-26 16:33 35.31787 139.96601 4003 ft 206 kts 319°
2026-04-26 16:34 35.32931 139.95545 4025 ft 208 kts 324°
2026-04-26 16:34 35.34148 139.94553 4021 ft 212 kts 328°
2026-04-26 16:34 35.35404 139.93627 4008 ft 209 kts 330°
2026-04-26 16:34 35.36651 139.92742 3953 ft 207 kts 330°
2026-04-26 16:35 35.37918 139.91848 3670 ft 211 kts 330°
2026-04-26 16:35 35.39190 139.90953 3397 ft 212 kts 330°
2026-04-26 16:35 35.40472 139.90050 3122 ft 213 kts 330°
2026-04-26 16:35 35.41750 139.89147 2857 ft 210 kts 331°
2026-04-26 16:36 35.43012 139.88257 2559 ft 208 kts 331°
2026-04-26 16:36 35.44241 139.87389 2278 ft 199 kts 332°
2026-04-26 16:36 35.45388 139.86577 2039 ft 182 kts 332°
2026-04-26 16:36 35.46446 139.85829 1793 ft 171 kts 332°
2026-04-26 16:37 35.47445 139.85124 1587 ft 166 kts 332°
2026-04-26 16:37 35.48462 139.84407 1364 ft 166 kts 332°
2026-04-26 16:37 35.49392 139.83749 1146 ft 148 kts 332°
2026-04-26 16:37 35.50243 139.83146 948 ft 137 kts 333°
2026-04-26 16:38 35.51082 139.82553 798 ft 142 kts 332°
2026-04-26 16:38 35.51781 139.82047 670 ft 143 kts 332°
2026-04-26 16:38 35.52414 139.81604 484 ft 141 kts 333°
2026-04-26 16:38 35.53262 139.81012 285 ft 138 kts 332°
2026-04-26 16:39 35.54078 139.80436 119 ft 134 kts 332°
2026-04-26 16:39 35.54854 139.79882 41 ft 118 kts 332°
2026-04-26 16:39 35.55455 139.79459 32 ft 79 kts 330°
2026-04-26 16:39 35.55716 139.79240 29 ft 28 kts 308°
2026-04-26 16:40 35.55793 139.79074 28 ft 19 kts 274°
2026-04-26 16:40 35.55759 139.78974 30 ft 8 kts 234°
2026-04-26 16:40 35.55715 139.78923 29 ft 12 kts 203°
2026-04-26 16:40 35.55634 139.78949 30 ft 12 kts 151°
2026-04-26 16:41 35.55560 139.79003 29 ft 12 kts 149°
2026-04-26 16:41 35.55485 139.79057 30 ft 12 kts 150°
2026-04-26 16:41 35.55410 139.79109 31 ft 12 kts 150°
2026-04-26 16:41 35.55324 139.79169 31 ft 14 kts 156°
2026-04-26 16:42 35.55250 139.79137 31 ft 12 kts 233°
2026-04-26 16:42 35.55197 139.79071 31 ft 11 kts 198°
2026-04-26 16:42 35.55149 139.79066 32 ft 4 kts 195°
2026-04-26 16:42 35.55128 139.79044 31 ft 4 kts 239°
2026-04-26 16:43 35.55113 139.79011 31 ft 3 kts 240°
2026-04-26 16:43 35.55107 139.78999 32 ft 2 kts 240°
2026-04-26 16:43 35.55105 139.78995 32 ft 0 kts 240°